Find Praetorian SDA-618

NORAD ID: 65581 Int'l Des: 2025-203 Owner: SDA Country: US operational
LEOCIRCULARPOLAR

实时位置

正在加载3D地球...

关于 Praetorian SDA-618

正在加载描述...

即将过境

Passes for default location (London). Set your location on the main map for personalized predictions.

高度历史

Loading altitude history...

两行轨道根数

1 65581U 25203S 26106.63380411 .00000185 00000-0 15341-3 0 9999
2 65581 81.3011 67.5462 0010146 7.2999 352.8304 13.84765149 30195
Epoch: Apr 16, 2026 • Age: 20 hours

当前状态

高度 960.8 km
速度 7.38 km/s
星下点 74.79°N, 154.52°W
发射日期 Sep 10, 2025
运行时间 0.5 years
类型 other

技术详情

分类 Payload
质量 300.00 kg
干质量 300.00 kg
总质量 300.00 kg
长度 1.00 m
直径 0.60 m
跨度 2.00 m
形状 Box + panels
制造商 YORKSS
平台类型 S-Class
阶段状态 In Orbit
所有者/国家 SDA/US

Most Searched